Flag for Canada Weather past 2 weeks in Hopedale, Newfoundland and Labrador, Canada

Now
34 °F

Chilly.


Feels Like: 25 °F
Forecast: N/A
Wind: 14 mph from Northwest

Location: Hopedale

Current Time: Oct 21, 2014 at 5:58:25 PM

Latest Report: Oct 21, 2014 at 5:00 PM


Visibility: N/A

Pressure: 30.04 "Hg

Humidity: 70%

Dew point: 26 °F

Location of HopedaleLocation

Historic Weather in Hopedale — Graph

°F

Hopedale temperature yesterday

Maximum temperature yesterday: 38 °F (at 3:00 AM)
Minimum temperature yesterday: 35 °F (at 8:00 PM)
Average temperature yesterday: 37 °F

Past Weeks' High & Low Weather Summary

 TemperatureHumidityPressure
High61 °F (Oct 7, 4:00 PM)100% (Oct 13, 11:00 PM)30.29 "Hg (Oct 13, 11:00 PM)
Low31 °F (Oct 21, 11:00 AM)43% (Oct 7, 4:00 PM)29.32 "Hg (Oct 18, 7:00 AM)
Average42 °F83%29.79 "Hg
* Reported Oct 6 4:00 PM — Oct 21 4:00 PM, Hopedale, Weather by CustomWeather, © 2014

Note: Actual official high and low records may vary slightly from our data, if they occured in-between our weather recording intervals... More about our weather records

Advertising

Hopedale weather history for previous 24 hours

 ConditionsComfort  
Time TempWeatherWind HumidityBarometerVisibility
4:00 PM
Oct 21
36 °FChilly.13 mph71%29.99 "HgN/A
3:00 PM37 °FChilly.15 mph74%29.96 "HgN/A
2:00 PM37 °FChilly.14 mph79%29.93 "HgN/A
1:00 PM37 °FChilly.13 mph84%29.90 "HgN/A
12:00 PM36 °FChilly.15 mph81%29.88 "HgN/A
11:00 AM31 °FChilly.16 mph100%29.85 "HgN/A
10:00 AM35 °FChilly.18 mph89%29.81 "HgN/A
9:00 AM33 °FChilly.14 mph94%29.77 "HgN/A
8:00 AM34 °FChilly.18 mph90%29.73 "HgN/A
7:00 AM35 °FChilly.23 mph86%29.67 "HgN/A
6:00 AM33 °FChilly.25 mph100%29.63 "HgN/A
5:00 AM36 °FChilly.24 mph91%29.58 "HgN/A
4:00 AM35 °FChilly.29 mph96%29.52 "HgN/A
3:00 AM36 °FChilly.25 mph92%29.49 "HgN/A
2:00 AM35 °FChilly.30 mph94%29.46 "HgN/A
1:00 AM33 °FChilly.35 mph100%29.42 "HgN/A
12:00 AM36 °FChilly.30 mph94%29.39 "HgN/A
11:00 PM
Oct 20
36 °FChilly.35 mph93%29.38 "HgN/A
10:00 PM36 °FChilly.30 mph94%29.37 "HgN/A
9:00 PM36 °FChilly.29 mph94%29.36 "HgN/A
8:00 PM35 °FChilly.29 mph97%29.36 "HgN/A
7:00 PM37 °FChilly.31 mph93%29.37 "HgN/A
6:00 PM37 °FChilly.31 mph94%29.37 "HgN/A
5:00 PM37 °FChilly.30 mph95%29.38 "HgN/A
Weather by CustomWeather, © 2014

See weather overviewHow to use our weather pages